Home   Weather   Korneuburg   Past weeks

Flag for Austria Past Weather in Korneuburg, Lower Austria, Austria — Yesterday and Last 2 Weeks

Now
23 °F

Fog.


Feels Like: 23 °F
Forecast: 17 / 29 °F
Wind: 2 mph from Southeast

Location: Wien / Hohe Warte

Current Time: Jan 21, 2017 at 2:37:06 pm

Latest Report: Jan 21, 2017 at 1:00 pm


Visibility: 2 mi

Pressure: 30.55 "Hg

Humidity: 80%

Dew Point: 17 °F

Location of KorneuburgLocation

Past Weather in Korneuburg — Graph

°F

Korneuburg Temperature Yesterday

Maximum temperature yesterday: 26 °F (at 3:00 pm)
Minimum temperature yesterday: 13 °F (at 8:00 am)
Average temperature yesterday: 19 °F

High & Low Weather Summary for the Past Weeks

 TemperatureHumidityPressure
High44 °F (Jan 12, 1:00 pm)92% (Jan 8, 6:00 am)30.71 "Hg (Jan 8, 6:00 am)
Low10 °F (Jan 11, 7:00 am)41% (Jan 7, 2:00 pm)29.41 "Hg (Jan 13, 6:00 am)
Average26 °F75%30.26 "Hg
* Reported Jan 6 1:00 pm — Jan 21 1:00 pm, Korneuburg, Weather by CustomWeather, © 2017

Note: Actual official high and low records may vary slightly from our data, if they occured in-between our weather recording intervals... More about our weather records

Advertising

Korneuburg Weather History for the Previous 24 Hours

Scroll right to see more
 ConditionsComfort  
Time TempWeatherWind HumidityBarometerVisibility
1:00 pm
Sat, Jan 21
23 °FFog.2 mph80%30.55 "Hg2 mi
12:00 pm23 °FHaze.2 mph80%30.56 "Hg2 mi
11:00 am21 °FFog.2 mph82%30.59 "Hg2 mi
10:00 am20 °FFog.2 mph83%30.59 "Hg2 mi
9:00 am18 °FFog.2 mph89%30.60 "Hg2 mi
8:00 am17 °FFog.1 mph89%30.58 "Hg2 mi
7:00 am16 °FFog.1 mph90%30.58 "Hg2 mi
6:00 am17 °FFog.1 mph89%30.57 "Hg2 mi
5:00 am17 °FCold.1 mph90%30.57 "HgN/A
4:00 am17 °FCold.1 mph89%30.58 "HgN/A
3:00 am18 °FCold.1 mph88%30.58 "HgN/A
2:00 am18 °FCold.1 mph89%30.58 "HgN/A
1:00 am18 °FFog.1 mph88%30.60 "Hg3 mi
12:00 am18 °FCold.1 mph88%30.61 "HgN/A
11:00 pm
Fri, Jan 20
19 °FCold.1 mph88%30.61 "HgN/A
10:00 pm20 °FFog.2 mph85%30.61 "Hg3 mi
9:00 pm21 °FCold.2 mph85%30.61 "HgN/A
8:00 pm22 °FCold.2 mph83%30.61 "HgN/A
7:00 pm22 °FFog.1 mph83%30.61 "Hg3 mi
6:00 pm23 °FFog.2 mph80%30.61 "Hg3 mi
5:00 pm24 °FClear.2 mph76%30.61 "Hg2 mi
4:00 pm25 °FSunny.2 mph74%30.62 "Hg3 mi
3:00 pm26 °FSunny.2 mph73%30.62 "Hg3 mi
2:00 pm25 °FSunny.2 mph72%30.63 "Hg3 mi
Weather by CustomWeather, © 2017

See weather overviewHow to use our weather pages